Location: Favalello
(42.2939°N, 9.2706°E)
Time: 11:46:16
(UTC+00:00)

Cosmos 1666 - Pass Details

Date: 06 December 2019
Orbit: 498 x 521 km, 82.5° (Epoch: 22 January)

Event Time Altitude Azimuth Distance (km) Brightness Sun altitude
Rises 18:05:03 0° 346° (NNW) 2,609 6.3 -24.1°
Reaches altitude 10° 18:07:13 10° 341° (NNW) 1,717 5.4 -24.5°
Maximum altitude 18:10:52 50° 266° (W) 644 3.4 -25.2°
Drops below altitude 10° 18:14:28 10° 190° (S) 1,695 5.5 -25.9°
Sets 18:16:35 0° 185° (S) 2,572 6.4 -26.2°
